Regional Weather Roundup
Issued by NWS Green Bay, WI

Home | Current Version | Previous Version | Graphics & Text | Print | Product List | Glossary Off
Versions: 1 2 3 4 5 6 7 8 9 10 11 12 13 14 15 16 17 18 19 20 21 22 23 24 25 26 27 28 29 30 31 32 33 34 35 36 37 38 39 40 41 42 43 44 45 46 47 48 49 50

000
ASUS43 KGRB 271010
RWRGRB

NORTH-CENTRAL AND NORTHEAST WISCONSIN REGIONAL WEATHER ROUNDUP
NATIONAL WEATHER SERVICE GREEN BAY WI
500 AM CDT WED AUG 27 2014

WIZ005-009-010>012-018-019-271100-
NORTH CENTRAL WISCONSIN

CITY           SKY/WX    TMP DP  RH WIND       PRES   REMARKS
IRONWOOD       NOT AVBL
MANITOWISH WTR LGT RAIN  52  52 100 CALM      30.19R
ARBOR VITAE    CLOUDY    57  55  95 CALM      30.18S
EAGLE RIVER    CLOUDY    53  53 100 CALM      30.16F
LAND O LAKES   CLOUDY    51  51  99 CALM      30.18S FOG
RHINELANDER    CLOUDY    55  54  96 CALM      30.18S
PHILLIPS       MOCLDY    54  53  97 CALM      30.18R
ANTIGO         CLOUDY    55  55  99 CALM      30.18F
TOMAHAWK       CLOUDY    53  51  95 CALM      30.18S FOG
MERRILL        CLOUDY    56  56 100 CALM      30.18R
$$

WIZ013-073-271100-
NORTHEAST WISCONSIN

CITY           SKY/WX    TMP DP  RH WIND       PRES   REMARKS
IRON MOUNTAIN  RAIN      54  51  90 CALM      30.15F
MARINETTE      MOCLDY    55  52  88 CALM      30.15F
OCONTO         CLOUDY    56  56  97 N3        30.16S
$$

WIZ017-030-035>037-045-271100-
CENTRAL WISCONSIN

CITY           SKY/WX    TMP DP  RH WIND       PRES   REMARKS
MEDFORD        CLOUDY    54  53  99 CALM      30.18S FOG
WAUSAU         LGT RAIN  58  57  97 CALM      30.15F
MOSINEE        LGT RAIN  57  55  94 CALM      30.18F
MARSHFIELD     CLOUDY    60  55  83 NE5       30.17F
WISC RAPIDS    PTCLDY    61  55  81 NE3       30.18S
STEVENS POINT  LGT RAIN  56  54  92 CALM      30.18S
WAUPACA        MOCLDY    59  57  93 CALM      30.17F
SHAWANO        MOCLDY    58  54  84 CALM      30.17S
CLINTONVILLE   PTCLDY    55  54  94 CALM      30.17S
$$

WIZ038-039-048-051-271100-
FOX VALLEY

CITY           SKY/WX    TMP DP  RH WIND       PRES   REMARKS
NWS GREEN BAY  CLOUDY    59  55  87 CALM      30.16S
APPLETON       MOCLDY    59  50  72 NE6       30.16S
OSHKOSH        CLOUDY    64  58  80 NE12      30.15F
FOND DU LAC    CLOUDY    64  57  78 NE8       30.16S
$$

WIZ022-050-052-271100-
EAST CENTRAL WISCONSIN

CITY           SKY/WX    TMP DP  RH WIND       PRES   REMARKS
STURGEON BAY   MOCLDY    59  52  77 NE3       30.16F
MANITOWOC      CLOUDY    61  59  93 N6        30.16S
SHEBOYGAN      CLOUDY    61  58  90 N7        30.15R
$$

LMZ563-521-522-541>543-271100-
LAKESHORE

STATION/POSITION TIME  TEMP    WIND        PRES    VSBY  WAVE
                       AIR SEA DIR/SP/G                  HT/PER
                 (UTC) (F)     (DEG/KT/KT) (MB)    (MI)  (FT/S)
SHEBOYGAN LKSHOR 1000   63 66  340/  9/ 11 1020.8S
KEWAUNEE LKSHORE 1000   61      10/  4/  7 1020.3R
NORTHPORT PIER   1000   63     360/  5/  6 1021.0S
N MID LAKE BUOY  1000   62 65  340/  8/ 10 1020.8F         1/ 3
S GREEN BAY BUOY 1000   65     VRB 10      1021.8S
SISTER BAY LKSHO 1000   58        CALM       N/A
CHAMBERS ISLAND  1000   62     310/  6/  7 1021.3S
MENOMINEE LKSHOR 1000   59     300/  3/  5 1021.7F
$$


USA.gov is the U.S. government's official web portal to all federal, state and local government web resources and services.